Time,TemperatureF,DewpointF,PressureIn,WindDirection,WindDirectionDegrees,WindSpeedMPH,WindSpeedGustMPH,Humidity,HourlyPrecipIn,Conditions,Clouds,dailyrainin,SoftwareType,DateUTC
2013-01-19 00:01:00,34.1,26.7,29.93,West,279,6.0,17.0,74,0.00,,,0.00,WUHU216PEETBRO,2013-01-19 05:01:00,
2013-01-19 00:02:00,34.0,26.4,29.93,West,279,11.7,19.4,73,0.00,,,0.00,WUHU216PEETBRO,2013-01-19 05:02:00,
2013-01-19 00:03:00,34.1,26.6,29.93,SW,232,4.3,19.4,74,0.00,,,0.00,WUHU216PEETBRO,2013-01-19 05:03:00,
2013-01-19 00:08:00,34.1,26.6,29.93,West,265,9.4,19.4,74,0.00,,,0.00,WUHU216PEETBRO,2013-01-19 05:08:00,
2013-01-19 00:13:00,34.1,26.7,29.93,West,263,6.8,17.8,74,0.00,,,0.00,WUHU216PEETBRO,2013-01-19 05:13:00,
2013-01-19 00:18:00,34.2,26.8,29.93,WSW,256,3.0,17.1,74,0.00,,,0.00,WUHU216PEETBRO,2013-01-19 05:18:00,
2013-01-19 00:23:00,34.0,26.9,29.93,West,263,6.6,14.0,75,0.00,,,0.00,WUHU216PEETBRO,2013-01-19 05:23:00,
2013-01-19 00:28:00,34.1,26.9,29.93,WSW,241,8.3,18.2,74,0.00,,,0.00,WUHU216PEETBRO,2013-01-19 05:28:00,
2013-01-19 00:33:00,34.0,26.9,29.92,SW,234,5.6,18.2,75,0.00,,,0.00,WUHU216PEETBRO,2013-01-19 05:33:00,
2013-01-19 00:38:00,34.1,27.0,29.92,SW,215,6.5,16.6,75,0.00,,,0.00,WUHU216PEETBRO,2013-01-19 05:38:00,
2013-01-19 00:43:00,34.1,27.0,29.92,WSW,252,5.7,18.8,75,0.00,,,0.00,WUHU216PEETBRO,2013-01-19 05:43:00,
2013-01-19 00:48:00,33.9,26.9,29.92,SW,225,6.5,19.8,75,0.00,,,0.00,WUHU216PEETBRO,2013-01-19 05:48:00,
2013-01-19 00:53:00,34.0,27.0,29.92,West,276,5.2,19.8,75,0.00,,,0.00,WUHU216PEETBRO,2013-01-19 05:53:00,
2013-01-19 00:58:00,34.1,27.2,29.92,South,191,4.8,15.9,75,0.00,,,0.00,WUHU216PEETBRO,2013-01-19 05:58:00,
2013-01-19 01:03:00,34.1,27.2,29.92,WSW,238,6.8,14.6,75,0.00,,,0.00,WUHU216PEETBRO,2013-01-19 06:03:00,
2013-01-19 01:08:00,33.8,27.2,29.92,West,266,4.5,14.6,77,0.00,,,0.00,WUHU216PEETBRO,2013-01-19 06:08:00,
2013-01-19 01:13:00,33.8,27.3,29.92,South,189,9.0,11.8,77,0.00,,,0.00,WUHU216PEETBRO,2013-01-19 06:13:00,
2013-01-19 01:18:00,33.9,27.4,29.91,SSW,207,5.7,13.0,77,0.00,,,0.00,WUHU216PEETBRO,2013-01-19 06:18:00,
2013-01-19 01:23:00,33.9,27.2,29.91,West,262,7.3,15.0,76,0.00,,,0.00,WUHU216PEETBRO,2013-01-19 06:23:00,
2013-01-19 01:28:00,34.0,27.5,29.91,SW,218,5.0,15.0,77,0.00,,,0.00,WUHU216PEETBRO,2013-01-19 06:28:00,
2013-01-19 01:33:00,34.0,27.4,29.91,WSW,258,5.8,17.0,76,0.00,,,0.00,WUHU216PEETBRO,2013-01-19 06:33:00,
2013-01-19 01:38:00,34.1,27.6,29.91,West,261,12.4,17.0,77,0.00,,,0.00,WUHU216PEETBRO,2013-01-19 06:38:00,
2013-01-19 01:43:00,34.1,27.5,29.91,SE,125,3.1,14.9,76,0.00,,,0.00,WUHU216PEETBRO,2013-01-19 06:43:00,
2013-01-19 01:48:00,34.2,27.5,29.91,WSW,242,10.5,14.2,76,0.00,,,0.00,WUHU216PEETBRO,2013-01-19 06:48:00,
2013-01-19 01:53:00,34.4,27.7,29.91,WSW,248,5.5,14.2,76,0.00,,,0.00,WUHU216PEETBRO,2013-01-19 06:53:00,
2013-01-19 01:58:00,34.4,27.7,29.91,WSW,258,6.8,12.9,76,0.00,,,0.00,WUHU216PEETBRO,2013-01-19 06:58:00,
2013-01-19 02:03:00,34.6,27.7,29.91,SW,234,10.4,14.1,76,0.00,,,0.00,WUHU216PEETBRO,2013-01-19 07:03:00,
2013-01-19 02:08:00,34.6,27.8,29.91,West,268,7.0,14.1,76,0.00,,,0.00,WUHU216PEETBRO,2013-01-19 07:08:00,
2013-01-19 02:13:00,34.6,27.8,29.91,WSW,258,9.9,11.1,76,0.00,,,0.00,WUHU216PEETBRO,2013-01-19 07:13:00,
2013-01-19 02:18:00,34.8,27.8,29.91,SW,231,3.4,15.3,75,0.00,,,0.00,WUHU216PEETBRO,2013-01-19 07:18:00,
2013-01-19 02:23:00,34.9,27.8,29.91,WSW,249,6.8,15.3,75,0.00,,,0.00,WUHU216PEETBRO,2013-01-19 07:23:00,
2013-01-19 02:28:00,35.0,28.1,29.91,SW,225,8.5,14.5,76,0.00,,,0.00,WUHU216PEETBRO,2013-01-19 07:28:00,
2013-01-19 02:33:00,34.8,28.0,29.91,SSE,156,3.5,14.5,76,0.00,,,0.00,WUHU216PEETBRO,2013-01-19 07:33:00,
2013-01-19 02:38:00,34.9,28.1,29.91,West,271,5.3,15.3,76,0.00,,,0.00,WUHU216PEETBRO,2013-01-19 07:38:00,
2013-01-19 02:43:00,34.7,28.0,29.91,West,265,5.5,15.3,76,0.00,,,0.00,WUHU216PEETBRO,2013-01-19 07:43:00,
2013-01-19 02:48:00,34.7,28.2,29.91,WSW,251,5.2,11.2,77,0.00,,,0.00,WUHU216PEETBRO,2013-01-19 07:48:00,
2013-01-19 02:53:00,34.8,28.1,29.91,SW,223,5.5,12.0,76,0.00,,,0.00,WUHU216PEETBRO,2013-01-19 07:53:00,
2013-01-19 02:58:00,34.7,28.1,29.91,West,278,8.0,12.9,77,0.00,,,0.00,WUHU216PEETBRO,2013-01-19 07:58:00,
2013-01-19 03:03:00,34.6,28.1,29.91,WSW,238,6.5,13.0,77,0.00,,,0.00,WUHU216PEETBRO,2013-01-19 08:03:00,
2013-01-19 03:08:00,34.8,28.3,29.91,WSW,244,8.0,13.0,77,0.00,,,0.00,WUHU216PEETBRO,2013-01-19 08:08:00,
2013-01-19 03:13:00,34.9,28.3,29.91,SW,224,5.5,13.8,77,0.00,,,0.00,WUHU216PEETBRO,2013-01-19 08:13:00,
2013-01-19 03:18:00,34.8,28.3,29.91,SSW,211,3.4,13.8,77,0.00,,,0.00,WUHU216PEETBRO,2013-01-19 08:18:00,
2013-01-19 03:23:00,34.7,28.4,29.91,SW,214,3.0,9.8,77,0.00,,,0.00,WUHU216PEETBRO,2013-01-19 08:23:00,
2013-01-19 03:28:00,34.7,28.4,29.91,SW,221,2.3,13.7,77,0.00,,,0.00,WUHU216PEETBRO,2013-01-19 08:28:00,
2013-01-19 03:33:00,34.5,28.3,29.91,SW,227,2.9,13.7,78,0.00,,,0.00,WUHU216PEETBRO,2013-01-19 08:33:00,
2013-01-19 03:38:00,34.5,28.3,29.91,WSW,255,0.0,13.3,78,0.00,,,0.00,WUHU216PEETBRO,2013-01-19 08:38:00,
2013-01-19 03:43:00,34.4,28.4,29.91,WNW,285,6.0,13.3,78,0.00,,,0.00,WUHU216PEETBRO,2013-01-19 08:43:00,
2013-01-19 03:48:00,34.3,28.3,29.91,WSW,245,6.0,11.4,78,0.00,,,0.00,WUHU216PEETBRO,2013-01-19 08:48:00,
2013-01-19 03:53:00,34.2,28.4,29.91,SW,224,2.7,11.3,79,0.00,,,0.00,WUHU216PEETBRO,2013-01-19 08:53:00,
2013-01-19 03:58:00,34.2,28.4,29.91,SW,218,7.6,11.2,79,0.00,,,0.00,WUHU216PEETBRO,2013-01-19 08:58:00,
2013-01-19 04:03:00,34.0,28.4,29.91,West,268,4.6,11.9,80,0.00,,,0.00,WUHU216PEETBRO,2013-01-19 09:03:00,
2013-01-19 04:08:00,34.0,28.5,29.91,SW,234,0.0,11.9,80,0.00,,,0.00,WUHU216PEETBRO,2013-01-19 09:08:00,
2013-01-19 04:13:00,34.0,28.6,29.91,WSW,242,8.5,11.1,80,0.00,,,0.00,WUHU216PEETBRO,2013-01-19 09:13:00,
2013-01-19 04:18:00,33.8,28.5,29.91,WSW,247,8.9,11.2,81,0.00,,,0.00,WUHU216PEETBRO,2013-01-19 09:18:00,
2013-01-19 04:23:00,33.8,28.5,29.91,SSW,210,3.4,11.2,81,0.00,,,0.00,WUHU216PEETBRO,2013-01-19 09:23:00,
2013-01-19 04:28:00,33.8,28.6,29.91,West,269,4.3,7.7,81,0.00,,,0.00,WUHU216PEETBRO,2013-01-19 09:28:00,
2013-01-19 04:33:00,33.9,28.7,29.91,SW,235,0.0,9.0,81,0.00,,,0.00,WUHU216PEETBRO,2013-01-19 09:33:00,
2013-01-19 04:38:00,33.9,28.7,29.90,WSW,254,10.6,10.6,81,0.00,,,0.00,WUHU216PEETBRO,2013-01-19 09:38:00,
2013-01-19 04:43:00,34.0,28.8,29.90,West,271,4.7,10.6,81,0.00,,,0.00,WUHU216PEETBRO,2013-01-19 09:43:00,
2013-01-19 04:48:00,33.9,28.8,29.90,West,271,4.8,9.5,81,0.00,,,0.00,WUHU216PEETBRO,2013-01-19 09:48:00,
2013-01-19 04:53:00,33.9,28.8,29.90,SW,235,5.0,10.3,81,0.00,,,0.00,WUHU216PEETBRO,2013-01-19 09:53:00,
2013-01-19 04:58:00,33.8,28.7,29.90,WSW,239,4.5,10.3,81,0.00,,,0.00,WUHU216PEETBRO,2013-01-19 09:58:00,
2013-01-19 05:03:00,33.7,28.8,29.90,WNW,292,6.3,9.1,82,0.00,,,0.00,WUHU216PEETBRO,2013-01-19 10:03:00,
2013-01-19 05:08:00,33.8,28.9,29.90,SSW,210,3.0,9.8,82,0.00,,,0.00,WUHU216PEETBRO,2013-01-19 10:08:00,
2013-01-19 05:13:00,33.8,29.0,29.90,SW,227,5.1,9.8,82,0.00,,,0.00,WUHU216PEETBRO,2013-01-19 10:13:00,
2013-01-19 05:18:00,33.8,29.0,29.90,SSW,201,0.0,7.9,83,0.00,,,0.00,WUHU216PEETBRO,2013-01-19 10:18:00,
2013-01-19 05:23:00,33.7,29.0,29.90,SSW,213,3.5,9.9,83,0.00,,,0.00,WUHU216PEETBRO,2013-01-19 10:23:00,
2013-01-19 05:28:00,33.6,29.0,29.90,WSW,247,7.8,9.9,83,0.00,,,0.00,WUHU216PEETBRO,2013-01-19 10:28:00,
2013-01-19 05:33:00,33.6,29.0,29.90,SW,215,6.2,9.9,83,0.00,,,0.00,WUHU216PEETBRO,2013-01-19 10:33:00,
2013-01-19 05:38:00,33.6,29.1,29.90,SW,232,0.0,9.9,83,0.00,,,0.00,WUHU216PEETBRO,2013-01-19 10:38:00,
2013-01-19 05:43:00,33.5,29.1,29.90,SSW,204,7.0,10.3,84,0.00,,,0.00,WUHU216PEETBRO,2013-01-19 10:43:00,
2013-01-19 05:48:00,33.3,29.1,29.90,West,259,0.0,10.3,84,0.00,,,0.00,WUHU216PEETBRO,2013-01-19 10:48:00,
2013-01-19 05:53:00,33.3,29.1,29.90,West,276,4.2,11.0,84,0.00,,,0.00,WUHU216PEETBRO,2013-01-19 10:53:00,
2013-01-19 05:58:00,33.3,29.1,29.89,West,271,7.0,11.0,84,0.00,,,0.00,WUHU216PEETBRO,2013-01-19 10:58:00,
2013-01-19 06:03:00,33.3,29.0,29.89,West,266,7.8,9.9,84,0.00,,,0.00,WUHU216PEETBRO,2013-01-19 11:03:00,
2013-01-19 06:08:00,33.4,29.2,29.90,WSW,242,4.3,9.9,84,0.00,,,0.00,WUHU216PEETBRO,2013-01-19 11:08:00,
2013-01-19 06:13:00,33.3,29.2,29.90,South,176,3.2,9.6,85,0.00,,,0.00,WUHU216PEETBRO,2013-01-19 11:13:00,
2013-01-19 06:15:00,33.3,29.3,29.90,SW,232,3.5,9.6,85,0.00,,,0.00,WUHU216PEETBRO,2013-01-19 11:15:00,
2013-01-19 06:17:00,33.2,29.2,29.90,West,278,4.3,11.3,85,0.00,,,0.00,WUHU216PEETBRO,2013-01-19 11:17:00,
2013-01-19 06:18:00,33.2,29.2,29.90,WSW,242,8.8,11.3,85,0.00,,,0.00,WUHU216PEETBRO,2013-01-19 11:18:00,
2013-01-19 06:21:00,33.1,29.1,29.90,West,262,4.8,11.3,85,0.00,,,0.00,WUHU216PEETBRO,2013-01-19 11:21:00,
2013-01-19 06:23:00,33.2,29.2,29.90,SSW,196,1.2,11.3,85,0.00,,,0.00,WUHU216PEETBRO,2013-01-19 11:23:00,
2013-01-19 06:24:00,33.2,29.2,29.89,West,265,3.5,11.3,85,0.00,,,0.00,WUHU216PEETBRO,2013-01-19 11:24:00,
2013-01-19 06:27:00,33.1,29.2,29.89,SW,234,6.2,11.0,86,0.00,,,0.00,WUHU216PEETBRO,2013-01-19 11:27:00,
2013-01-19 06:29:00,33.2,29.3,29.89,SSW,208,4.3,11.0,85,0.00,,,0.00,WUHU216PEETBRO,2013-01-19 11:29:00,
2013-01-19 06:32:00,33.0,29.1,29.89,SW,220,2.4,9.5,86,0.00,,,0.00,WUHU216PEETBRO,2013-01-19 11:32:00,
2013-01-19 06:36:00,33.3,29.4,29.89,SSW,203,0.0,9.5,86,0.00,,,0.00,WUHU216PEETBRO,2013-01-19 11:36:00,
2013-01-19 06:38:00,33.2,29.4,29.89,West,262,5.8,9.5,86,0.00,,,0.00,WUHU216PEETBRO,2013-01-19 11:38:00,
2013-01-19 06:42:00,33.1,29.3,29.90,WSW,239,7.1,9.2,86,0.00,,,0.00,WUHU216PEETBRO,2013-01-19 11:42:00,
2013-01-19 06:44:00,33.2,29.4,29.89,SW,215,0.0,9.9,86,0.00,,,0.00,WUHU216PEETBRO,2013-01-19 11:44:00,
2013-01-19 06:45:00,33.0,29.3,29.89,WSW,251,7.9,9.9,86,0.00,,,0.00,WUHU216PEETBRO,2013-01-19 11:45:00,
2013-01-19 06:48:00,33.1,29.4,29.90,SW,232,5.6,9.9,86,0.00,,,0.00,WUHU216PEETBRO,2013-01-19 11:48:00,
2013-01-19 06:50:00,33.0,29.3,29.90,WSW,244,5.4,9.9,86,0.00,,,0.00,WUHU216PEETBRO,2013-01-19 11:50:00,
2013-01-19 06:51:00,33.1,29.4,29.90,South,187,3.4,9.9,86,0.00,,,0.00,WUHU216PEETBRO,2013-01-19 11:51:00,
2013-01-19 06:53:00,33.1,29.4,29.90,West,266,6.0,10.4,86,0.00,,,0.00,WUHU216PEETBRO,2013-01-19 11:53:00,
2013-01-19 06:54:00,33.1,29.4,29.90,WSW,258,0.0,10.4,86,0.00,,,0.00,WUHU216PEETBRO,2013-01-19 11:54:00,
2013-01-19 06:57:00,33.1,29.5,29.90,SW,220,3.4,10.4,87,0.00,,,0.00,WUHU216PEETBRO,2013-01-19 11:57:00,
2013-01-19 06:58:00,33.1,29.6,29.90,WSW,255,4.4,10.4,87,0.00,,,0.00,WUHU216PEETBRO,2013-01-19 11:58:00,
2013-01-19 07:00:00,33.0,29.5,29.90,SW,218,3.5,10.4,87,0.00,,,0.00,WUHU216PEETBRO,2013-01-19 12:00:00,
2013-01-19 07:01:00,33.0,29.5,29.90,WSW,255,6.3,10.4,87,0.00,,,0.00,WUHU216PEETBRO,2013-01-19 12:01:00,
2013-01-19 07:03:00,33.0,29.5,29.90,WNW,283,9.1,11.3,87,0.00,,,0.00,WUHU216PEETBRO,2013-01-19 12:03:00,
2013-01-19 07:04:00,33.1,29.6,29.90,SW,225,5.2,11.3,87,0.00,,,0.00,WUHU216PEETBRO,2013-01-19 12:04:00,
2013-01-19 07:06:00,33.0,29.5,29.90,SW,232,5.7,11.3,87,0.00,,,0.00,WUHU216PEETBRO,2013-01-19 12:06:00,
2013-01-19 07:07:00,33.0,29.5,29.90,West,263,7.9,11.3,87,0.00,,,0.00,WUHU216PEETBRO,2013-01-19 12:07:00,
2013-01-19 07:09:00,33.0,29.5,29.90,West,266,5.8,11.3,87,0.00,,,0.00,WUHU216PEETBRO,2013-01-19 12:09:00,
2013-01-19 07:10:00,33.0,29.5,29.90,SW,232,5.7,11.3,87,0.00,,,0.00,WUHU216PEETBRO,2013-01-19 12:10:00,
2013-01-19 07:12:00,33.1,29.6,29.90,WSW,258,7.1,11.3,87,0.00,,,0.00,WUHU216PEETBRO,2013-01-19 12:12:00,
2013-01-19 07:13:00,33.1,29.6,29.90,SSW,213,0.0,10.3,87,0.00,,,0.00,WUHU216PEETBRO,2013-01-19 12:13:00,
2013-01-19 07:16:00,33.2,29.7,29.90,West,262,7.8,10.3,87,0.00,,,0.00,WUHU216PEETBRO,2013-01-19 12:16:00,
2013-01-19 07:18:00,33.2,29.6,29.89,WSW,248,8.7,10.3,87,0.00,,,0.00,WUHU216PEETBRO,2013-01-19 12:18:00,
2013-01-19 07:19:00,33.2,29.6,29.89,WSW,255,4.5,10.3,87,0.00,,,0.00,WUHU216PEETBRO,2013-01-19 12:19:00,
2013-01-19 07:22:00,33.4,29.9,29.89,WSW,251,0.0,9.5,87,0.00,,,0.00,WUHU216PEETBRO,2013-01-19 12:22:00,
2013-01-19 07:24:00,33.3,29.8,29.89,WSW,248,5.3,9.5,87,0.00,,,0.00,WUHU216PEETBRO,2013-01-19 12:24:00,
2013-01-19 07:25:00,33.3,29.8,29.90,WSW,244,6.0,9.5,87,0.00,,,0.00,WUHU216PEETBRO,2013-01-19 12:25:00,
2013-01-19 07:27:00,33.3,29.8,29.90,WSW,245,5.9,8.7,87,0.00,,,0.00,WUHU216PEETBRO,2013-01-19 12:27:00,
2013-01-19 07:28:00,33.3,29.8,29.90,WSW,245,4.8,10.3,87,0.00,,,0.00,WUHU216PEETBRO,2013-01-19 12:28:00,
2013-01-19 07:30:00,33.3,29.8,29.90,WSW,245,5.9,10.3,87,0.00,,,0.00,WUHU216PEETBRO,2013-01-19 12:30:00,
2013-01-19 07:33:00,33.3,29.8,29.90,SW,227,3.4,10.3,87,0.00,,,0.00,WUHU216PEETBRO,2013-01-19 12:33:00,
2013-01-19 07:36:00,33.3,29.8,29.90,South,182,0.0,10.3,87,0.00,,,0.00,WUHU216PEETBRO,2013-01-19 12:36:00,
2013-01-19 07:37:00,33.4,30.0,29.90,WSW,248,6.1,10.3,87,0.00,,,0.00,WUHU216PEETBRO,2013-01-19 12:37:00,
2013-01-19 07:47:00,33.2,29.9,29.90,SW,215,4.2,9.3,88,0.00,,,0.00,WUHU216PEETBRO,2013-01-19 12:47:00,
2013-01-19 07:48:00,33.2,29.9,29.90,WSW,245,1.6,9.3,88,0.00,,,0.00,WUHU216PEETBRO,2013-01-19 12:48:00,
2013-01-19 07:53:00,33.1,30.1,29.89,SW,225,4.9,7.8,89,0.00,,,0.00,WUHU216PEETBRO,2013-01-19 12:53:00,
2013-01-19 07:58:00,33.1,30.0,29.89,WSW,249,5.0,8.6,88,0.00,,,0.00,WUHU216PEETBRO,2013-01-19 12:58:00,
2013-01-19 08:03:00,33.3,30.2,29.90,SW,232,4.4,8.6,88,0.00,,,0.00,WUHU216PEETBRO,2013-01-19 13:03:00,
2013-01-19 08:08:00,33.3,30.2,29.90,SW,231,0.0,7.8,88,0.00,,,0.00,WUHU216PEETBRO,2013-01-19 13:08:00,
2013-01-19 08:13:00,33.2,30.3,29.90,WSW,251,0.0,7.3,89,0.00,,,0.00,WUHU216PEETBRO,2013-01-19 13:13:00,
2013-01-19 08:18:00,33.2,30.3,29.90,SW,224,3.4,9.0,89,0.00,,,0.00,WUHU216PEETBRO,2013-01-19 13:18:00,
2013-01-19 08:23:00,33.3,30.4,29.90,SW,220,0.0,9.0,89,0.00,,,0.00,WUHU216PEETBRO,2013-01-19 13:23:00,
2013-01-19 08:28:00,33.4,30.5,29.90,West,269,2.4,5.7,89,0.00,,,0.00,WUHU216PEETBRO,2013-01-19 13:28:00,
2013-01-19 08:33:00,33.4,30.5,29.90,SW,224,2.4,7.6,89,0.00,,,0.00,WUHU216PEETBRO,2013-01-19 13:33:00,
2013-01-19 08:38:00,33.6,30.7,29.90,SSW,213,2.8,8.0,89,0.00,,,0.00,WUHU216PEETBRO,2013-01-19 13:38:00,
2013-01-19 08:43:00,33.7,30.8,29.90,WSW,252,0.0,8.0,89,0.00,,,0.00,WUHU216PEETBRO,2013-01-19 13:43:00,
2013-01-19 08:48:00,34.0,30.9,29.90,SW,221,4.3,6.8,89,0.00,,,0.00,WUHU216PEETBRO,2013-01-19 13:48:00,
2013-01-19 08:53:00,34.3,31.1,29.90,SW,230,4.3,6.8,88,0.00,,,0.00,WUHU216PEETBRO,2013-01-19 13:53:00,
2013-01-19 08:58:00,34.7,31.4,29.90,South,180,3.4,6.5,88,0.00,,,0.00,WUHU216PEETBRO,2013-01-19 13:58:00,
2013-01-19 09:03:00,35.0,31.4,29.91,WSW,237,0.0,7.6,87,0.00,,,0.00,WUHU216PEETBRO,2013-01-19 14:03:00,
2013-01-19 09:08:00,35.4,31.7,29.91,SSW,200,4.5,7.6,86,0.00,,,0.00,WUHU216PEETBRO,2013-01-19 14:08:00,
2013-01-19 09:13:00,35.7,31.8,29.91,SW,214,0.0,7.0,86,0.00,,,0.00,WUHU216PEETBRO,2013-01-19 14:13:00,
2013-01-19 09:18:00,36.1,32.0,29.91,WSW,248,1.9,7.5,85,0.00,,,0.00,WUHU216PEETBRO,2013-01-19 14:18:00,
2013-01-19 09:23:00,36.5,32.2,29.91,WSW,249,0.0,7.5,84,0.00,,,0.00,WUHU216PEETBRO,2013-01-19 14:23:00,
2013-01-19 09:28:00,36.8,32.2,29.91,NW,324,3.0,7.6,83,0.00,,,0.00,WUHU216PEETBRO,2013-01-19 14:28:00,
2013-01-19 09:33:00,37.2,32.5,29.91,West,278,7.2,9.4,83,0.00,,,0.00,WUHU216PEETBRO,2013-01-19 14:33:00,
2013-01-19 09:38:00,37.6,32.7,29.91,WSW,256,5.0,9.4,82,0.00,,,0.00,WUHU216PEETBRO,2013-01-19 14:38:00,
2013-01-19 09:43:00,37.8,32.5,29.91,SW,223,3.1,10.4,81,0.00,,,0.00,WUHU216PEETBRO,2013-01-19 14:43:00,
2013-01-19 09:48:00,38.1,32.7,29.91,WSW,242,4.3,10.4,81,0.00,,,0.00,WUHU216PEETBRO,2013-01-19 14:48:00,
2013-01-19 09:53:00,38.1,32.6,29.91,SW,231,7.6,8.3,81,0.00,,,0.00,WUHU216PEETBRO,2013-01-19 14:53:00,
2013-01-19 09:58:00,38.1,32.8,29.91,WSW,249,5.3,8.3,81,0.00,,,0.00,WUHU216PEETBRO,2013-01-19 14:58:00,
2013-01-19 10:03:00,38.2,32.9,29.91,SW,232,0.0,8.2,81,0.00,,,0.00,WUHU216PEETBRO,2013-01-19 15:03:00,
2013-01-19 10:08:00,38.2,32.7,29.91,SW,221,5.2,8.2,80,0.00,,,0.00,WUHU216PEETBRO,2013-01-19 15:08:00,
2013-01-19 10:13:00,38.3,32.7,29.91,WSW,245,5.2,7.6,80,0.00,,,0.00,WUHU216PEETBRO,2013-01-19 15:13:00,
2013-01-19 10:18:00,38.5,32.8,29.91,SW,230,0.0,9.4,80,0.00,,,0.00,WUHU216PEETBRO,2013-01-19 15:18:00,
2013-01-19 10:23:00,38.6,32.8,29.91,WSW,251,3.5,9.4,79,0.00,,,0.00,WUHU216PEETBRO,2013-01-19 15:23:00,
2013-01-19 10:28:00,38.8,32.7,29.91,West,266,5.5,9.9,79,0.00,,,0.00,WUHU216PEETBRO,2013-01-19 15:28:00,
2013-01-19 10:33:00,39.1,33.0,29.91,SW,217,2.9,10.3,78,0.00,,,0.00,WUHU216PEETBRO,2013-01-19 15:33:00,
2013-01-19 10:38:00,39.2,32.9,29.91,SSE,148,2.9,11.4,78,0.00,,,0.00,WUHU216PEETBRO,2013-01-19 15:38:00,
2013-01-19 10:43:00,39.4,33.0,29.91,WSW,237,3.2,11.4,78,0.00,,,0.00,WUHU216PEETBRO,2013-01-19 15:43:00,
2013-01-19 10:48:00,39.5,33.0,29.91,WNW,286,6.2,9.3,77,0.00,,,0.00,WUHU216PEETBRO,2013-01-19 15:48:00,
2013-01-19 10:53:00,39.7,33.2,29.91,WSW,254,5.8,9.9,77,0.00,,,0.00,WUHU216PEETBRO,2013-01-19 15:53:00,
2013-01-19 10:58:00,39.6,32.7,29.91,West,259,5.5,9.9,76,0.00,,,0.00,WUHU216PEETBRO,2013-01-19 15:58:00,
2013-01-19 11:03:00,39.9,32.9,29.91,West,266,13.2,13.2,76,0.00,,,0.00,WUHU216PEETBRO,2013-01-19 16:03:00,
2013-01-19 11:08:00,40.2,33.0,29.90,WSW,256,4.7,13.2,75,0.00,,,0.00,WUHU216PEETBRO,2013-01-19 16:08:00,
2013-01-19 11:13:00,40.5,33.0,29.90,SW,234,7.5,11.6,74,0.00,,,0.00,WUHU216PEETBRO,2013-01-19 16:13:00,
2013-01-19 11:18:00,40.6,33.3,29.90,WNW,289,7.5,11.9,75,0.00,,,0.00,WUHU216PEETBRO,2013-01-19 16:18:00,
2013-01-19 11:23:00,40.5,33.1,29.90,SW,227,7.0,13.7,74,0.00,,,0.00,WUHU216PEETBRO,2013-01-19 16:23:00,
2013-01-19 11:28:00,40.8,33.5,29.89,WNW,289,0.0,13.7,75,0.00,,,0.00,WUHU216PEETBRO,2013-01-19 16:28:00,
2013-01-19 11:33:00,40.8,33.5,29.88,SW,231,6.5,11.6,75,0.00,,,0.00,WUHU216PEETBRO,2013-01-19 16:33:00,
2013-01-19 11:38:00,40.7,32.9,29.88,WSW,239,5.8,11.4,73,0.00,,,0.00,WUHU216PEETBRO,2013-01-19 16:38:00,
2013-01-19 11:43:00,40.8,33.2,29.88,WSW,251,4.4,11.6,74,0.00,,,0.00,WUHU216PEETBRO,2013-01-19 16:43:00,
2013-01-19 11:48:00,40.8,33.3,29.87,West,266,5.3,11.6,74,0.00,,,0.00,WUHU216PEETBRO,2013-01-19 16:48:00,
2013-01-19 11:53:00,40.9,33.6,29.87,West,280,7.8,8.9,75,0.00,,,0.00,WUHU216PEETBRO,2013-01-19 16:53:00,
2013-01-19 11:58:00,41.4,33.8,29.86,WNW,283,4.2,9.3,74,0.00,,,0.00,WUHU216PEETBRO,2013-01-19 16:58:00,
2013-01-19 12:03:00,41.4,33.2,29.86,SW,225,3.5,12.1,72,0.00,,,0.00,WUHU216PEETBRO,2013-01-19 17:03:00,
2013-01-19 12:08:00,41.4,33.5,29.85,WNW,283,7.0,12.4,73,0.00,,,0.00,WUHU216PEETBRO,2013-01-19 17:08:00,
2013-01-19 12:13:00,41.4,33.1,29.85,SSW,211,5.0,12.4,72,0.00,,,0.00,WUHU216PEETBRO,2013-01-19 17:13:00,
2013-01-19 12:18:00,41.7,33.4,29.85,WSW,258,6.2,9.6,72,0.00,,,0.00,WUHU216PEETBRO,2013-01-19 17:18:00,
2013-01-19 12:24:00,41.7,33.6,29.85,NW,307,3.3,11.4,73,0.00,,,0.00,WUHU216PEETBRO,2013-01-19 17:24:00,
2013-01-19 12:29:00,41.9,33.7,29.84,West,262,4.7,11.4,72,0.00,,,0.00,WUHU216PEETBRO,2013-01-19 17:29:00,
2013-01-19 12:34:00,42.0,33.6,29.84,WNW,292,5.0,11.9,72,0.00,,,0.00,WUHU216PEETBRO,2013-01-19 17:34:00,
2013-01-19 12:39:00,42.0,33.3,29.83,WSW,245,6.4,11.9,71,0.00,,,0.00,WUHU216PEETBRO,2013-01-19 17:39:00,
2013-01-19 12:44:00,42.3,33.9,29.83,SSW,208,0.0,10.4,72,0.00,,,0.00,WUHU216PEETBRO,2013-01-19 17:44:00,
2013-01-19 12:49:00,42.2,33.5,29.82,SSW,206,4.7,10.3,71,0.00,,,0.00,WUHU216PEETBRO,2013-01-19 17:49:00,
2013-01-19 12:54:00,42.3,34.0,29.81,SW,221,2.9,10.3,72,0.00,,,0.00,WUHU216PEETBRO,2013-01-19 17:54:00,
2013-01-19 12:59:00,42.4,33.7,29.81,West,271,8.0,12.2,71,0.00,,,0.00,WUHU216PEETBRO,2013-01-19 17:59:00,
2013-01-19 13:04:00,42.4,33.7,29.80,SW,234,0.0,11.4,71,0.00,,,0.00,WUHU216PEETBRO,2013-01-19 18:04:00,
2013-01-19 13:09:00,42.4,33.4,29.80,West,278,7.0,10.9,70,0.00,,,0.00,WUHU216PEETBRO,2013-01-19 18:09:00,
2013-01-19 13:14:00,42.5,33.8,29.80,SSW,201,8.8,11.7,71,0.00,,,0.00,WUHU216PEETBRO,2013-01-19 18:14:00,
2013-01-19 13:20:00,42.4,33.9,29.80,West,278,5.9,11.7,71,0.00,,,0.00,WUHU216PEETBRO,2013-01-19 18:20:00,
2013-01-19 13:25:00,42.4,33.5,29.80,SW,214,3.2,11.4,70,0.00,,,0.00,WUHU216PEETBRO,2013-01-19 18:25:00,
2013-01-19 13:30:00,42.5,33.7,29.79,WSW,249,4.3,14.0,71,0.00,,,0.00,WUHU216PEETBRO,2013-01-19 18:30:00,
2013-01-19 13:35:00,42.7,33.6,29.79,West,266,8.9,14.0,70,0.00,,,0.00,WUHU216PEETBRO,2013-01-19 18:35:00,
2013-01-19 13:40:00,42.9,33.8,29.79,WSW,239,4.2,12.7,70,0.00,,,0.00,WUHU216PEETBRO,2013-01-19 18:40:00,
2013-01-19 13:45:00,43.0,34.0,29.78,South,189,5.2,17.3,70,0.00,,,0.00,WUHU216PEETBRO,2013-01-19 18:45:00,
2013-01-19 13:50:00,43.2,33.8,29.78,SSE,148,8.5,17.3,69,0.00,,,0.00,WUHU216PEETBRO,2013-01-19 18:50:00,
2013-01-19 13:55:00,43.4,34.3,29.77,SSW,207,3.2,15.7,70,0.00,,,0.00,WUHU216PEETBRO,2013-01-19 18:55:00,
2013-01-19 14:00:00,43.2,33.7,29.77,WNW,282,6.5,12.2,69,0.00,,,0.00,WUHU216PEETBRO,2013-01-19 19:00:00,
2013-01-19 14:05:00,43.5,34.4,29.77,SSE,152,5.1,13.5,70,0.00,,,0.00,WUHU216PEETBRO,2013-01-19 19:05:00,
2013-01-19 14:10:00,43.5,34.1,29.76,West,271,3.1,13.6,69,0.00,,,0.00,WUHU216PEETBRO,2013-01-19 19:10:00,
2013-01-19 14:16:00,43.5,33.9,29.76,SSW,200,7.3,13.7,69,0.00,,,0.00,WUHU216PEETBRO,2013-01-19 19:16:00,
2013-01-19 14:22:00,43.7,34.1,29.75,WSW,251,3.5,13.7,68,0.00,,,0.00,WUHU216PEETBRO,2013-01-19 19:22:00,
2013-01-19 14:27:00,44.0,34.4,29.75,SW,225,4.4,14.9,68,0.00,,,0.00,WUHU216PEETBRO,2013-01-19 19:27:00,
2013-01-19 14:32:00,44.2,34.2,29.75,SW,227,5.1,15.4,67,0.00,,,0.00,WUHU216PEETBRO,2013-01-19 19:32:00,
2013-01-19 14:37:00,44.1,34.2,29.75,SW,234,5.2,15.4,68,0.00,,,0.00,WUHU216PEETBRO,2013-01-19 19:37:00,
2013-01-19 14:42:00,44.3,34.3,29.74,SW,214,8.3,13.0,68,0.00,,,0.00,WUHU216PEETBRO,2013-01-19 19:42:00,
2013-01-19 14:48:00,44.4,34.2,29.74,SW,230,10.7,13.0,67,0.00,,,0.00,WUHU216PEETBRO,2013-01-19 19:48:00,
2013-01-19 14:53:00,44.7,34.8,29.74,WNW,289,5.6,13.0,68,0.00,,,0.00,WUHU216PEETBRO,2013-01-19 19:53:00,
2013-01-19 14:58:00,44.6,34.4,29.73,WSW,245,4.8,13.0,67,0.00,,,0.00,WUHU216PEETBRO,2013-01-19 19:58:00,
2013-01-19 15:04:00,44.6,34.2,29.73,WSW,237,7.1,14.9,67,0.00,,,0.00,WUHU216PEETBRO,2013-01-19 20:04:00,
2013-01-19 15:09:00,44.6,34.4,29.73,West,259,7.2,14.9,67,0.00,,,0.00,WUHU216PEETBRO,2013-01-19 20:09:00,
2013-01-19 15:14:00,44.4,34.3,29.72,South,172,5.7,12.7,67,0.00,,,0.00,WUHU216PEETBRO,2013-01-19 20:14:00,
2013-01-19 15:19:00,44.3,34.2,29.72,WSW,252,14.2,14.2,67,0.00,,,0.00,WUHU216PEETBRO,2013-01-19 20:19:00,
2013-01-19 15:24:00,44.3,34.5,29.72,WSW,258,8.5,14.5,68,0.00,,,0.00,WUHU216PEETBRO,2013-01-19 20:24:00,
2013-01-19 15:30:00,44.2,34.1,29.71,SW,224,6.2,15.9,67,0.00,,,0.00,WUHU216PEETBRO,2013-01-19 20:30:00,
2013-01-19 15:35:00,44.2,34.3,29.71,SW,234,17.5,17.5,68,0.00,,,0.00,WUHU216PEETBRO,2013-01-19 20:35:00,
2013-01-19 15:40:00,44.1,34.2,29.71,WSW,254,9.1,23.9,68,0.00,,,0.00,WUHU216PEETBRO,2013-01-19 20:40:00,
2013-01-19 15:45:00,44.1,34.2,29.70,SSW,200,7.0,19.4,68,0.00,,,0.00,WUHU216PEETBRO,2013-01-19 20:45:00,
2013-01-19 15:50:00,44.3,34.3,29.70,WSW,251,5.8,20.9,68,0.00,,,0.00,WUHU216PEETBRO,2013-01-19 20:50:00,
2013-01-19 15:55:00,44.2,34.2,29.70,SW,230,10.9,20.9,67,0.00,,,0.00,WUHU216PEETBRO,2013-01-19 20:55:00,
2013-01-19 16:00:00,44.3,34.4,29.70,SW,231,9.2,16.3,68,0.00,,,0.00,WUHU216PEETBRO,2013-01-19 21:00:00,
2013-01-19 16:05:00,44.3,34.3,29.70,SW,231,5.7,18.8,68,0.00,,,0.00,WUHU216PEETBRO,2013-01-19 21:05:00,
2013-01-19 16:10:00,44.4,34.7,29.70,WSW,242,5.7,18.8,68,0.00,,,0.00,WUHU216PEETBRO,2013-01-19 21:10:00,
2013-01-19 16:15:00,44.4,34.7,29.69,SW,231,4.5,14.7,68,0.00,,,0.00,WUHU216PEETBRO,2013-01-19 21:15:00,
2013-01-19 16:20:00,44.2,34.3,29.70,WSW,256,6.6,18.4,68,0.00,,,0.00,WUHU216PEETBRO,2013-01-19 21:20:00,
2013-01-19 16:25:00,44.3,34.5,29.70,WSW,256,12.9,18.4,68,0.00,,,0.00,WUHU216PEETBRO,2013-01-19 21:25:00,
2013-01-19 16:31:00,44.3,34.3,29.70,SSE,167,7.9,16.8,68,0.00,,,0.00,WUHU216PEETBRO,2013-01-19 21:31:00,
2013-01-19 16:36:00,44.3,34.4,29.70,West,276,12.4,16.9,68,0.00,,,0.00,WUHU216PEETBRO,2013-01-19 21:36:00,
2013-01-19 16:41:00,44.6,35.0,29.70,SW,230,5.5,16.9,69,0.00,,,0.00,WUHU216PEETBRO,2013-01-19 21:41:00,
2013-01-19 16:47:00,44.4,34.7,29.70,WNW,289,7.5,16.5,68,0.00,,,0.00,WUHU216PEETBRO,2013-01-19 21:47:00,
2013-01-19 16:52:00,44.4,34.9,29.70,WSW,252,8.5,16.5,69,0.00,,,0.00,WUHU216PEETBRO,2013-01-19 21:52:00,
2013-01-19 16:57:00,44.5,35.0,29.70,South,190,5.1,16.3,69,0.00,,,0.00,WUHU216PEETBRO,2013-01-19 21:57:00,
2013-01-19 17:02:00,44.4,35.1,29.69,SW,231,5.1,16.3,69,0.00,,,0.00,WUHU216PEETBRO,2013-01-19 22:02:00,
2013-01-19 17:07:00,44.3,35.0,29.69,SW,230,3.1,13.8,69,0.00,,,0.00,WUHU216PEETBRO,2013-01-19 22:07:00,
2013-01-19 17:12:00,44.5,35.0,29.70,WSW,252,4.7,15.5,69,0.00,,,0.00,WUHU216PEETBRO,2013-01-19 22:12:00,
2013-01-19 17:17:00,44.3,35.0,29.69,West,273,5.5,15.5,69,0.00,,,0.00,WUHU216PEETBRO,2013-01-19 22:17:00,
2013-01-19 17:22:00,44.4,35.2,29.69,West,268,3.3,14.7,70,0.00,,,0.00,WUHU216PEETBRO,2013-01-19 22:22:00,
2013-01-19 17:27:00,44.6,35.1,29.69,West,263,5.5,18.8,69,0.00,,,0.00,WUHU216PEETBRO,2013-01-19 22:27:00,
2013-01-19 17:32:00,44.9,35.3,29.68,WSW,252,4.7,19.8,69,0.00,,,0.00,WUHU216PEETBRO,2013-01-19 22:32:00,
2013-01-19 17:37:00,44.6,35.0,29.68,SSE,153,8.1,19.8,69,0.00,,,0.00,WUHU216PEETBRO,2013-01-19 22:37:00,
2013-01-19 17:42:00,44.8,35.3,29.68,SW,235,9.1,18.5,69,0.00,,,0.00,WUHU216PEETBRO,2013-01-19 22:42:00,
2013-01-19 17:48:00,44.9,35.6,29.67,West,280,9.6,16.3,69,0.00,,,0.00,WUHU216PEETBRO,2013-01-19 22:48:00,
2013-01-19 17:53:00,44.9,35.5,29.67,WSW,245,7.1,17.8,69,0.00,,,0.00,WUHU216PEETBRO,2013-01-19 22:53:00,
2013-01-19 17:58:00,44.6,35.4,29.67,West,275,9.2,16.4,70,0.00,,,0.00,WUHU216PEETBRO,2013-01-19 22:58:00,
2013-01-19 18:03:00,44.6,35.4,29.67,SW,234,7.6,20.4,70,0.00,,,0.00,WUHU216PEETBRO,2013-01-19 23:03:00,
2013-01-19 18:08:00,44.7,35.5,29.67,WSW,255,7.8,20.4,70,0.00,,,0.00,WUHU216PEETBRO,2013-01-19 23:08:00,
2013-01-19 18:13:00,44.6,35.4,29.67,WSW,256,13.3,20.7,70,0.00,,,0.00,WUHU216PEETBRO,2013-01-19 23:13:00,
2013-01-19 18:18:00,44.8,35.6,29.67,WSW,247,4.6,20.7,70,0.00,,,0.00,WUHU216PEETBRO,2013-01-19 23:18:00,
2013-01-19 18:24:00,44.6,35.6,29.66,WSW,252,6.2,19.0,70,0.00,,,0.00,WUHU216PEETBRO,2013-01-19 23:24:00,
2013-01-19 18:29:00,44.5,35.8,29.65,SSW,201,3.3,19.0,71,0.00,,,0.00,WUHU216PEETBRO,2013-01-19 23:29:00,
2013-01-19 18:34:00,44.5,35.7,29.65,WSW,242,6.6,15.7,71,0.00,,,0.00,WUHU216PEETBRO,2013-01-19 23:34:00,
2013-01-19 18:39:00,44.4,35.7,29.65,SSW,206,15.4,17.1,71,0.00,,,0.00,WUHU216PEETBRO,2013-01-19 23:39:00,
2013-01-19 18:44:00,44.4,35.8,29.65,West,280,7.6,17.3,71,0.00,,,0.00,WUHU216PEETBRO,2013-01-19 23:44:00,
2013-01-19 18:49:00,44.4,35.7,29.64,West,259,6.6,17.3,71,0.00,,,0.00,WUHU216PEETBRO,2013-01-19 23:49:00,
2013-01-19 18:54:00,44.2,35.5,29.64,SW,215,5.0,11.2,71,0.00,,,0.00,WUHU216PEETBRO,2013-01-19 23:54:00,
2013-01-19 18:59:00,44.2,35.5,29.64,SW,215,5.0,5.0,71,0.00,,,0.00,WUHU216PEETBRO,2013-01-19 23:59:00,
2013-01-19 19:22:00,44.0,35.7,29.66,West,266,7.2,7.2,72,0.00,,,0.00,WUHU216PEETBRO,2013-01-20 00:22:00,
2013-01-19 19:27:00,44.0,35.7,29.66,West,266,7.2,7.2,72,0.00,,,0.00,WUHU216PEETBRO,2013-01-20 00:27:00,
2013-01-19 19:32:00,44.0,35.7,29.66,West,266,7.2,7.2,72,0.00,,,0.00,WUHU216PEETBRO,2013-01-20 00:32:00,
2013-01-19 19:52:00,43.8,36.0,29.64,WSW,249,7.9,7.9,74,0.00,,,0.00,WUHU216PEETBRO,2013-01-20 00:52:00,
2013-01-19 19:57:00,43.8,36.0,29.64,WSW,249,7.9,7.9,74,0.00,,,0.00,WUHU216PEETBRO,2013-01-20 00:57:00,
2013-01-19 20:02:00,43.8,36.0,29.64,WSW,249,7.9,7.9,74,0.00,,,0.00,WUHU216PEETBRO,2013-01-20 01:02:00,
2013-01-19 20:22:00,43.7,36.2,29.62,WNW,299,9.3,9.3,75,0.00,,,0.00,WUHU216PEETBRO,2013-01-20 01:22:00,
2013-01-19 20:27:00,43.7,36.2,29.62,WNW,299,9.3,9.3,75,0.00,,,0.00,WUHU216PEETBRO,2013-01-20 01:27:00,
2013-01-19 20:52:00,43.4,36.4,29.60,WNW,292,4.9,4.9,76,0.00,,,0.00,WUHU216PEETBRO,2013-01-20 01:52:00,
2013-01-19 20:57:00,43.4,36.4,29.60,WNW,292,4.9,4.9,76,0.00,,,0.00,WUHU216PEETBRO,2013-01-20 01:57:00,
2013-01-19 21:22:00,42.8,36.4,29.57,SW,227,6.2,6.2,78,0.00,,,0.00,WUHU216PEETBRO,2013-01-20 02:22:00,
2013-01-19 21:27:00,42.8,36.4,29.57,SW,227,6.2,6.2,78,0.00,,,0.00,WUHU216PEETBRO,2013-01-20 02:27:00,
2013-01-19 21:52:00,42.5,36.7,29.57,West,259,13.0,13.0,80,0.00,,,0.00,WUHU216PEETBRO,2013-01-20 02:52:00,
2013-01-19 21:57:00,42.5,36.7,29.57,West,259,13.0,13.0,80,0.00,,,0.00,WUHU216PEETBRO,2013-01-20 02:57:00,
2013-01-19 22:22:00,42.5,37.1,29.56,WSW,258,8.9,8.9,81,0.00,,,0.00,WUHU216PEETBRO,2013-01-20 03:22:00,
2013-01-19 22:27:00,42.5,37.1,29.56,WSW,258,8.9,8.9,81,0.00,,,0.00,WUHU216PEETBRO,2013-01-20 03:27:00,
2013-01-19 22:52:00,43.3,37.8,29.54,West,262,10.3,10.3,81,0.00,,,0.00,WUHU216PEETBRO,2013-01-20 03:52:00,
2013-01-19 22:57:00,43.3,37.8,29.54,West,262,10.3,10.3,81,0.00,,,0.00,WUHU216PEETBRO,2013-01-20 03:57:00,
2013-01-19 23:22:00,43.6,38.0,29.53,West,269,12.0,12.0,80,0.00,,,0.00,WUHU216PEETBRO,2013-01-20 04:22:00,
2013-01-19 23:27:00,43.6,38.0,29.53,West,269,12.0,12.0,80,0.00,,,0.00,WUHU216PEETBRO,2013-01-20 04:27:00,
2013-01-19 23:52:00,43.5,38.0,29.52,WSW,249,6.4,6.4,81,0.00,,,0.00,WUHU216PEETBRO,2013-01-20 04:52:00,
2013-01-19 23:57:00,43.5,38.0,29.52,WSW,249,6.4,6.4,81,0.00,,,0.00,WUHU216PEETBRO,2013-01-20 04:57:00,